Flag Weather past 2 weeks in Arrecife, Canary Islands, Spain

Now
66 °F

Partly sunny.


Feels Like: 66 °F
Forecast: 66 / 72 °F
Wind: 7 mph from North

Location: Lanzarote / Aeropuerto

Current Time: Nov 24, 2014 at 8:44:54 AM

Latest Report: Nov 24, 2014 at 8:00 AM


Visibility: N/A

Pressure: 30.12 "Hg

Humidity: 68%

Dew point: 55 °F

Location of ArrecifeLocation

Historic Weather in Arrecife — Graph

°F

Arrecife temperature yesterday

Maximum temperature yesterday: 72 °F (at 11:30 AM)
Minimum temperature yesterday: 61 °F (at 7:30 AM)
Average temperature yesterday: 68 °F

Past Weeks' High & Low Weather Summary

 TemperatureHumidityPressure
High81 °F (Nov 14, 3:30 PM)94% (Nov 12, 2:00 PM)30.15 "Hg (Nov 12, 2:00 PM)
Low57 °F (Nov 21, 6:00 AM)44% (Nov 10, 1:30 PM)29.59 "Hg (Nov 22, 6:00 AM)
Average70 °F75%29.94 "Hg
* Reported Nov 9 7:00 AM — Nov 24 7:30 AM, Arrecife, Weather by CustomWeather, © 2014

Note: Actual official high and low records may vary slightly from our data, if they occured in-between our weather recording intervals... More about our weather records

Advertising

Arrecife weather history for previous 24 hours

 ConditionsComfort  
Time TempWeatherWind HumidityBarometerVisibility
7:30 AM
Nov 24
66 °FPartly sunny.8 mph73%30.12 "HgN/A
7:00 AM66 °FPassing clouds.8 mph73%30.09 "HgN/A
6:30 AM66 °FPassing clouds.9 mph78%30.09 "HgN/A
6:00 AM66 °FPassing clouds.8 mph83%30.09 "HgN/A
1:00 AM66 °FPassing clouds.13 mph88%30.07 "HgN/A
12:30 AM68 °FPassing clouds.14 mph83%30.07 "HgN/A
12:00 AM68 °FPassing clouds.15 mph83%30.07 "HgN/A
11:30 PM
Nov 23
68 °FRain showers. Passing clouds.15 mph83%30.07 "HgN/A
11:00 PM68 °FPassing clouds.15 mph83%30.07 "HgN/A
10:30 PM68 °FPassing clouds.14 mph83%30.04 "HgN/A
10:00 PM68 °FPassing clouds.10 mph83%30.04 "HgN/A
9:30 PM68 °FPassing clouds.14 mph83%30.04 "HgN/A
9:00 PM68 °FPassing clouds.14 mph83%30.01 "HgN/A
8:30 PM68 °FPassing clouds.10 mph88%30.01 "HgN/A
8:00 PM68 °FPassing clouds.9 mph83%29.98 "HgN/A
7:30 PM68 °FPassing clouds.10 mph83%29.98 "HgN/A
7:00 PM68 °FPassing clouds.9 mph83%29.98 "HgN/A
6:30 PM68 °FPassing clouds.8 mph83%29.95 "HgN/A
6:00 PM68 °FPassing clouds.12 mph83%29.95 "HgN/A
5:30 PM70 °FScattered clouds.14 mph78%29.92 "HgN/A
5:00 PM70 °FScattered clouds.14 mph78%29.92 "HgN/A
4:30 PM70 °FScattered clouds.12 mph78%29.89 "HgN/A
4:00 PM72 °FScattered clouds.7 mph73%29.89 "HgN/A
3:30 PM72 °FScattered clouds.3 mph73%29.89 "HgN/A
3:00 PM70 °FScattered clouds.3 mph78%29.86 "HgN/A
2:30 PM72 °FScattered clouds.9 mph69%29.86 "HgN/A
2:00 PM70 °FScattered clouds.12 mph78%29.86 "HgN/A
1:30 PM72 °FScattered clouds.13 mph69%29.86 "HgN/A
1:00 PM70 °FLight rain. Scattered clouds.14 mph73%29.89 "HgN/A
12:30 PM70 °FScattered clouds.13 mph73%29.89 "HgN/A
12:00 PM70 °FScattered clouds.13 mph69%29.89 "HgN/A
11:30 AM72 °FPassing clouds.14 mph69%29.89 "HgN/A
11:00 AM70 °FPassing clouds.10 mph69%29.89 "HgN/A
10:30 AM68 °FPassing clouds.3 mph73%29.89 "HgN/A
10:00 AM66 °FScattered clouds.3 mph78%29.89 "HgN/A
9:30 AM66 °FScattered clouds.6 mph78%29.89 "HgN/A
9:00 AM66 °FScattered clouds.5 mph73%29.86 "HgN/A
8:30 AM63 °FScattered clouds.3 mph83%29.86 "HgN/A
8:00 AM61 °FScattered clouds.5 mph88%29.83 "HgN/A
Weather by CustomWeather, © 2014

See weather overviewHow to use our weather pages